FW6216 Weather Reports


time (UTC)temp
F
wind
direction
speed
knots
gust
knots
rain 1hr
in
rain 24hr
in
rain mn
in
humidity
%
barometer
mb
20260508170035 62 63 3.5 7.8 0.00 0.00 0.00 50 1020.1
20260508164535 64 58 2.6 7.0 0.00 0.00 0.00 49 1020.1
20260508163031 62 30 2.6 7.0 0.00 0.00 0.00 52 1020.2
20260508161531 60 51 2.6 6.1 0.00 0.00 0.00 55 1020.3
20260508160034 58 51 2.6 7.0 0.00 0.00 0.00 57 1020.2
20260508154532 58 42 2.6 6.1 0.00 0.00 0.00 59 1020.1
20260508153152 57 52 0.9 4.3 0.00 0.00 0.00 61 1020.1
20260508151534 52 204 0.0 2.6 0.00 0.00 0.00 67 1020.0
20260508150030 50 242 0.0 1.7 0.00 0.00 0.00 68 1019.8
20260508143108 46 210 0.0 1.7 0.00 0.00 0.00 69 1019.4
20260508140031 44 223 1.7 5.2 0.00 0.00 0.00 68 1019.4
20260508134530 44 243 2.6 5.2 0.00 0.00 0.00 69 1019.2
20260508133111 43 200 1.7 4.3 0.00 0.00 0.00 70 1019.1
20260508131610 42 215 2.6 3.5 0.00 0.00 0.00 70 1019.0
20260508130109 41 185 1.7 3.5 0.00 0.00 0.00 70 1018.9
20260508124610 41 247 0.0 3.5 0.00 0.00 0.00 70 1018.7
20260508123151 41 225 0.0 1.7 0.00 0.00 0.00 69 1018.7
20260508121531 41 179 0.0 2.6 0.00 0.00 0.00 69 1018.8
20260508120036 41 237 0.0 3.5 0.00 0.00 0.00 67 1018.8
20260508114531 41 266 0.0 3.5 0.00 0.00 0.00 66 1018.7
20260508113031 42 270 0.0 2.6 0.00 0.00 0.00 66 1018.7
20260508111532 41 220 0.9 4.3 0.00 0.00 0.00 66 1018.6
20260508104534 42 224 0.0 3.5 0.00 0.00 0.00 64 1018.6
20260508103031 42 228 0.9 3.5 0.00 0.00 0.00 62 1018.6
20260508094610 42 181 2.6 5.2 0.00 0.00 0.00 61 1018.6
20260508093033 43 229 2.6 6.1 0.00 0.00 0.00 59 1018.6
20260508090030 43 206 0.9 2.6 0.00 0.00 0.00 58 1018.4
20260508084532 44 211 2.6 4.3 0.00 0.00 0.00 57 1018.4
20260508083108 44 231 3.5 5.2 0.00 0.00 0.00 56 1018.4
20260508081529 44 217 1.7 6.1 0.00 0.00 0.00 55 1018.4
20260508080031 44 206 1.7 4.3 0.00 0.00 0.00 55 1018.5
20260508074535 43 224 2.6 3.5 0.00 0.00 0.00 56 1018.5
20260508073038 43 244 0.9 3.5 0.00 0.00 0.00 54 1018.3
20260508070035 45 240 2.6 4.3 0.00 0.00 0.00 51 1018.3
20260508064606 46 221 1.7 4.3 0.00 0.00 0.00 50 1018.3
20260508063030 47 226 0.9 2.6 0.00 0.00 0.00 47 1018.3
20260508061531 49 215 1.7 3.5 0.00 0.00 0.00 45 1018.3
20260508060110 49 173 2.6 4.3 0.00 0.00 0.00 43 1018.3
20260508054654 50 166 2.6 4.3 0.00 0.00 0.00 42 1018.2
20260508053031 52 199 0.9 3.5 0.00 0.00 0.00 40 1018.2
20260508051534 52 198 0.0 2.6 0.00 0.00 0.00 40 1018.1
20260508050034 52 228 0.9 4.3 0.00 0.00 0.00 39 1018.0
20260508044531 53 228 0.9 2.6 0.00 0.00 0.00 39 1017.9
20260508043031 54 234 0.0 3.5 0.00 0.00 0.00 38 1017.8
20260508040030 56 106 3.5 7.8 0.00 0.00 0.00 36 1017.4
20260508034609 57 104 4.3 8.7 0.00 0.00 0.00 35 1017.2
20260508033029 58 106 2.6 7.0 0.00 0.00 0.00 34 1017.1
20260508031533 60 91 4.3 6.1 0.00 0.00 0.00 33 1017.0
20260508030037 61 78 3.5 6.1 0.00 0.00 0.00 31 1016.9
20260508024534 63 71 6.1 10.4 0.00 0.00 0.00 30 1016.7
20260508023150 64 67 6.1 11.3 0.00 0.00 0.00 30 1016.6
20260508021700 65 64 7.0 10.4 0.00 0.00 0.00 30 1016.6
20260508020034 66 37 4.3 9.6 0.00 0.00 0.00 30 1016.7
20260508014641 66 37 5.2 9.6 0.00 0.00 0.00 30 1016.7
20260508013110 69 347 5.2 9.6 0.00 0.00 0.00 30 1016.6
20260508011530 70 329 6.1 11.3 0.00 0.00 0.00 29 1016.6
20260508010107 71 348 6.1 11.3 0.00 0.00 0.00 29 1016.7
20260508004529 72 340 7.8 12.2 0.00 0.00 0.00 29 1016.6
20260508003035 72 344 7.8 13.9 0.00 0.00 0.00 28 1016.5
20260508000108 73 326 8.7 17.4 0.00 0.00 0.00 27 1016.4
20260507233111 74 349 7.8 13.9 0.00 0.00 0.00 28 1016.5
20260507231607 74 346 6.1 11.3 0.00 0.00 0.00 31 1016.6
20260507230034 74 28 6.1 13.9 0.00 0.00 0.00 32 1016.8
20260507221535 72 31 6.1 11.3 0.00 0.00 0.00 34 1017.3
20260507214535 73 48 7.8 13.9 0.00 0.00 0.00 34 1017.6
20260507213036 73 20 5.2 10.4 0.00 0.00 0.00 35 1017.9
20260507210030 73 14 5.2 12.2 0.00 0.00 0.00 35 1018.0
20260507204532 73 39 4.3 8.7 0.00 0.00 0.00 35 1018.2
20260507203031 73 52 4.3 9.6 0.00 0.00 0.00 36 1018.4
20260507201647 72 41 5.2 9.6 0.00 0.00 0.00 36 1018.6
20260507200033 73 41 4.3 12.2 0.00 0.00 0.00 37 1018.7
20260507194651 72 34 5.2 10.4 0.00 0.00 0.00 38 1018.8
20260507193036 73 47 4.3 9.6 0.00 0.00 0.00 38 1018.9
20260507190034 71 18 4.3 9.6 0.00 0.00 0.00 43 1019.2
20260507184535 69 39 5.2 11.3 0.00 0.00 0.00 48 1019.3
20260507181530 67 36 6.1 12.2 0.00 0.00 0.00 51 1019.5
20260507180033 66 46 6.1 10.4 0.00 0.00 0.00 51 1019.4
20260507174530 65 59 6.1 13.0 0.00 0.00 0.00 52 1019.6
20260507173029 67 52 9.6 16.5 0.00 0.00 0.00 46 1019.4
20260507171533 68 338 4.3 8.7 0.00 0.00 0.00 43 1019.5